Find Starlink 1817

NORAD ID: 46715 Int'l Des: 2020-073 Owner: SPXS Country: US Constellation: starlink operational
LEOCIRCULAR

当前视图

正在加载3D地球...

About Starlink 1817

Starlink 1817 (NORAD 46715) is a starlink constellation satellite (v1.0) launched Oct 18, 2020 by SPXS of US. It operates in LEO, CIRCULAR orbit with a mass of 260.00 kg.

关于 Starlink 1817

正在加载描述...

即将过境

Passes for default location (London). Set your location on the main map for personalized predictions.

高度历史

Loading altitude history...

两行轨道根数

1 46715U 20073AX 26173.81668686 .00244029 33812-4 67628-3 0 9997
2 46715 53.0405 54.7048 0005785 237.1819 122.8651 15.93371428314024
Epoch: Jun 22, 2026 • Age: 26 hours

当前状态

高度 291.5 km
速度 7.74 km/s
星下点 19.53°N, 25.91°W
发射日期 Oct 18, 2020
运行时间 5.6 years
类型 internet

技术详情

分类 Payload
质量 260.00 kg
干质量 248.00 kg
总质量 260.00 kg
长度 0.20 m
直径 2.80 m
跨度 9.00 m
形状 Box + pan
制造商 SPXS
平台类型 Starlink
阶段状态 In Orbit
所有者/国家 SPXS/US

Most Searched